Weather History for Baltimore Martin, MD

Change the Weather History Date:

Thursday, April 18, 2013

  Actual Average Record
Temperature  
Mean Temperature 65 °F -  
Max Temperature 71 °F 62 °F 87 °F (2002)
Min Temperature 59 °F 44 °F 39 °F (2001)
Growing Degree Days 15 (Base 50)    
Moisture  
Dew Point 56 °F    
Average Humidity 82    
Maximum Humidity 100    
Minimum Humidity 72    
Precipitation  
Precipitation 0.00 in - - ()
Sea Level Pressure  
Sea Level Pressure 30.19 in    
Wind  
Wind Speed 6 mph (East)    
Max Wind Speed 17 mph    
Max Gust Speed 26 mph    
Visibility 9 miles    
Events Rain    
Averages and records for this station are not official NWS values.
T = Trace of Precipitation, MM = Missing Value Source: NWS Daily Summary

Daily Weather History Graph

Daily Weather History Graph

Search for Another Location

Airport:

Trip Planner

Search our weather history database for the weather conditions in past years. The results will help you decide how hot, cold, wet, or windy it might be!

Date:

Astronomy

Apr. 18, 2013 Rise Set
Actual Time 6:23 AM EDT 7:46 PM EDT
Civil Twilight 5:56 AM EDT 8:14 PM EDT
Nautical Twilight 5:22 AM EDT 8:48 PM EDT
Astronomical Twilight 4:47 AM EDT 9:23 PM EDT
Moon 12:33 PM EDT (4/18) 1:59 AM EDT (4/18)
Length of Visible Light 14h 18m
Length of Day
13h 22m
First Quarter, 51% of the Moon is Illuminated
Apr 18
First Quarter
Apr 25
Full
May 2
Last Quarter
May 9
New
May 18
First Quarter

Hourly Weather History & Observations

Time (EDT) Temp. Dew Point Humidity Pressure Visibility Wind Dir Wind Speed Gust Speed Precip Events Conditions
12:30 AM 60.8 °F 51.8 °F 72% 30.27 in 10.0 mi Calm Calm - N/A   Mostly Cloudy
12:48 AM 60.8 °F 51.8 °F 72% 30.27 in 10.0 mi ENE 5.8 mph - N/A   Mostly Cloudy
1:09 AM 59.0 °F 51.8 °F 77% 30.27 in 10.0 mi ENE 4.6 mph - N/A   Overcast
1:30 AM 59.0 °F 51.8 °F 77% 30.28 in 10.0 mi NE 3.5 mph - N/A   Overcast
1:48 AM 59.0 °F 51.8 °F 77% 30.27 in 10.0 mi NE 5.8 mph - N/A   Overcast
2:09 AM 59.0 °F 51.8 °F 77% 30.26 in 10.0 mi NE 5.8 mph - N/A   Overcast
2:30 AM 59.0 °F 51.8 °F 77% 30.26 in 10.0 mi ENE 4.6 mph - N/A   Overcast
2:48 AM 59.0 °F 51.8 °F 77% 30.25 in 10.0 mi ENE 5.8 mph - N/A   Overcast
3:09 AM 59.0 °F 51.8 °F 77% 30.25 in 10.0 mi NE 4.6 mph - N/A   Mostly Cloudy
3:30 AM 59.0 °F 51.8 °F 77% 30.25 in 10.0 mi ENE 4.6 mph - N/A   Mostly Cloudy
3:48 AM 59.0 °F 51.8 °F 77% 30.23 in 10.0 mi ENE 9.2 mph - N/A   Mostly Cloudy
4:09 AM 59.0 °F 51.8 °F 77% 30.24 in 10.0 mi NE 4.6 mph - N/A   Mostly Cloudy
4:30 AM 59.0 °F 53.6 °F 82% 30.24 in 10.0 mi ENE 5.8 mph - N/A   Overcast
4:51 AM 59.0 °F 51.8 °F 77% 30.23 in 10.0 mi ENE 5.8 mph - N/A   Overcast
5:09 AM 59.0 °F 51.8 °F 77% 30.23 in 10.0 mi East 5.8 mph - N/A   Overcast
5:30 AM 59.0 °F 51.8 °F 77% 30.23 in 10.0 mi ENE 8.1 mph - N/A   Overcast
5:36 AM 59.0 °F 51.8 °F 77% 30.23 in 10.0 mi ENE 6.9 mph - N/A   Overcast
5:55 AM 59.0 °F 53.6 °F 82% 30.23 in 7.0 mi East 4.6 mph - N/A   Overcast
6:55 AM 59.0 °F 53.6 °F 82% 30.24 in 7.0 mi East 4.6 mph - N/A   Overcast
7:50 AM 59.0 °F 55.4 °F 88% 30.25 in 7.0 mi East 5.8 mph - N/A   Overcast
8:45 AM 59.0 °F 55.4 °F 88% 30.25 in 7.0 mi East 6.9 mph - N/A   Overcast
9:50 AM 59.0 °F 57.2 °F 94% 30.26 in 2.5 mi East 8.1 mph - N/A   Drizzle
10:50 AM 59.0 °F 57.2 °F 94% 30.26 in 2.5 mi East 8.1 mph - N/A Rain Light Rain
11:45 AM 59.0 °F 59.0 °F 100% 30.25 in 3.0 mi East 9.2 mph - N/A   Drizzle
12:50 PM 62.6 °F 62.6 °F 100% 30.22 in 4.0 mi East 9.2 mph - N/A   Overcast
1:50 PM 64.4 °F 62.6 °F 94% 30.20 in 3.0 mi ESE 6.9 mph - N/A   Overcast
2:45 PM 68.0 °F 62.6 °F 83% 30.18 in 5.0 mi ESE 5.8 mph - N/A   Mostly Cloudy
3:45 PM 69.8 °F 64.4 °F 83% 30.15 in 7.0 mi East 8.1 mph - N/A   Scattered Clouds
4:45 PM 71.6 °F 64.4 °F 78% 30.12 in 10.0 mi East 6.9 mph - N/A   Partly Cloudy
5:55 PM 71.6 °F 62.6 °F 73% 30.10 in 10.0 mi ESE 5.8 mph - N/A   Partly Cloudy
6:45 PM 69.8 °F 62.6 °F 78% 30.09 in 10.0 mi SE 9.2 mph - N/A   Partly Cloudy
7:50 PM 66.2 °F 59.0 °F 78% 30.08 in 10.0 mi SE 9.2 mph - N/A   Clear
8:50 PM 66.2 °F 59.0 °F 78% 30.08 in 10.0 mi SSE 17.3 mph - N/A   Clear
9:45 PM 66.2 °F 59.0 °F 78% 30.08 in 10.0 mi SSE 16.1 mph - N/A   Clear
10:12 PM 64.4 °F 59.0 °F 83% 30.07 in 10.0 mi SE 17.3 mph - N/A   Clear
10:33 PM 64.4 °F 59.0 °F 83% 30.07 in 10.0 mi SE 16.1 mph - N/A   Clear
10:51 PM 64.4 °F 59.0 °F 83% 30.06 in 10.0 mi SE 17.3 mph - N/A   Clear
11:12 PM 64.4 °F 60.8 °F 88% 30.05 in 10.0 mi SE 17.3 mph 26.5 mph N/A   Clear
11:33 PM 64.4 °F 59.0 °F 83% 30.05 in 10.0 mi SE 17.3 mph - N/A   Clear
11:51 PM 62.6 °F 59.0 °F 88% 30.05 in 10.0 mi SE 16.1 mph - N/A   Clear